Flag for Germany Weather past 2 weeks in Erkrath, North Rhine-Westphalia, Germany

Now
63 °F

Clear.


Feels Like: 63 °F
Forecast: 59 / 72 °F
Wind: 8 mph from South

Location: Duesseldorf

Current Time: Sep 19, 2014 at 6:48:13 AM

Latest Report: Sep 19, 2014 at 6:20 AM


Visibility: 10 mi

Pressure: 29.83 "Hg

Humidity: 94%

Dew point: 61 °F

Location of ErkrathLocation

Historic Weather in Erkrath — Graph

°F

Erkrath temperature yesterday

Maximum temperature yesterday: 72 °F (at 1:50 PM)
Minimum temperature yesterday: 57 °F (at 4:50 AM)
Average temperature yesterday: 64 °F

Past Weeks' High & Low Weather Summary

 TemperatureHumidityPressure
High77 °F (Sep 5, 5:50 PM)100% (Sep 8, 6:50 AM)30.24 "Hg (Sep 8, 6:50 AM)
Low46 °F (Sep 12, 5:50 AM)46% (Sep 11, 4:50 PM)29.83 "Hg (Sep 18, 4:50 AM)
Average63 °F78%30.03 "Hg
* Reported Sep 4 5:20 AM — Sep 19 5:50 AM, Erkrath, Weather by CustomWeather, © 2014

Note: Actual official high and low records may vary slightly from our data, if they occured in-between our weather recording intervals... More about our weather records

Advertising

Erkrath weather history for previous 24 hours

 ConditionsComfort  
Time TempWeatherWind HumidityBarometerVisibility
5:50 AM
Sep 19
63 °FClear.7 mph94%29.83 "Hg10 mi
5:20 AM63 °FPassing clouds.8 mph94%29.83 "HgN/A
4:50 AM63 °FClear.7 mph94%29.83 "Hg10 mi
4:20 AM64 °FClear.7 mph88%29.83 "Hg10 mi
3:50 AM63 °FClear.5 mph88%29.83 "Hg10 mi
3:20 AM63 °FClear.6 mph94%29.83 "Hg10 mi
2:50 AM63 °FPassing clouds.7 mph94%29.83 "HgN/A
2:20 AM64 °FPassing clouds.8 mph88%29.83 "HgN/A
1:50 AM64 °FPassing clouds.7 mph88%29.83 "HgN/A
1:20 AM63 °FPassing clouds.9 mph94%29.83 "HgN/A
12:50 AM63 °FSprinkles. Passing clouds.6 mph94%29.83 "HgN/A
12:20 AM63 °FSprinkles. Passing clouds.12 mph94%29.86 "HgN/A
11:50 PM
Sep 18
63 °FSprinkles. Passing clouds.9 mph100%29.86 "HgN/A
11:20 PM63 °FLots of rain. Passing clouds.12 mph100%29.86 "HgN/A
10:50 PM64 °FThunderstorms. Partly cloudy.13 mph94%29.86 "HgN/A
10:20 PM64 °FThunderstorms. Partly cloudy.9 mph94%29.86 "HgN/A
9:50 PM64 °FThunderstorms. Passing clouds.10 mph94%29.86 "HgN/A
9:20 PM64 °FThundershowers. Partly cloudy.8 mph94%29.83 "HgN/A
8:50 PM64 °FThunderstorms. Passing clouds.7 mph94%29.83 "HgN/A
8:20 PM66 °FThundershowers. Broken clouds.6 mph88%29.83 "HgN/A
7:50 PM66 °FBroken clouds.6 mph88%29.83 "HgN/A
7:20 PM68 °FBroken clouds.7 mph88%29.83 "HgN/A
6:50 PM68 °FPartly sunny.7 mph88%29.83 "HgN/A
6:20 PM68 °FPartly sunny.8 mph88%29.83 "HgN/A
5:50 PM68 °FRain showers. Broken clouds.5 mph83%29.83 "HgN/A
5:20 PM70 °FScattered showers. Broken clouds.8 mph78%29.83 "HgN/A
4:50 PM68 °FLight rain. Broken clouds.7 mph88%29.83 "HgN/A
4:20 PM70 °FRain. Broken clouds.5 mph78%29.83 "HgN/A
3:50 PM72 °FLight rain. Clear.6 mph69%29.83 "HgN/A
3:20 PM72 °FLight rain. Clear.7 mph69%29.83 "HgN/A
2:50 PM72 °FSunny.7 mph69%29.86 "Hg10 mi
2:20 PM72 °FBroken clouds.6 mph69%29.86 "HgN/A
1:50 PM72 °FBroken clouds.5 mph69%29.86 "HgN/A
1:20 PM68 °FLight rain. Broken clouds.5 mph78%29.86 "HgN/A
12:50 PM68 °FLight rain. Partly sunny.6 mph78%29.86 "HgN/A
12:20 PM66 °FPartly sunny.6 mph78%29.86 "HgN/A
11:50 AM66 °FPartly sunny.8 mph78%29.86 "HgN/A
11:20 AM66 °FLight rain. Broken clouds.8 mph78%29.86 "HgN/A
10:50 AM66 °FLight rain. Partly sunny.8 mph78%29.86 "HgN/A
10:20 AM66 °FLight rain. Broken clouds.3 mph78%29.86 "HgN/A
9:50 AM64 °FLight rain. Partly sunny.3 mph83%29.83 "HgN/A
9:20 AM64 °FSunny.6 mph78%29.83 "Hg10 mi
8:50 AM64 °FSunny.7 mph78%29.86 "Hg10 mi
8:20 AM63 °FSunny.6 mph83%29.86 "Hg10 mi
7:50 AM61 °FClear.3 mph83%29.86 "Hg10 mi
7:20 AM61 °FClear.3 mph83%29.83 "Hg10 mi
6:50 AM61 °FClear.6 mph88%29.83 "Hg10 mi
6:20 AM57 °FFog.3 mph94%29.83 "HgN/A
Weather by CustomWeather, © 2014

See weather overviewHow to use our weather pages